Wetbulb
69.54 73.29 73.91 73.75 73.02 72.21 71.24 70.05 69.67 69.28 68.90 68.21 67.59 67.10 66.55 65.93 65.52 65.41 65.37 65.23 64.71 64.45 64.64 64.79 64.89 64.57 64.82 65.48 66.10 66.87 67.37 68.12 69.63 70.65 71.98 73.69 74.00 74.30 74.95 75.83 75.96 75.19 75.87
69.88 73.40 73.92 73.68 73.35 72.87 72.05 71.04 70.91 70.57 70.02 68.84 68.55 67.83 67.02 66.37 65.84 65.56 65.35 65.42 65.46 65.54 65.61 65.74 66.12 66.42 66.21 65.75 66.25 66.56 67.29 67.60 68.26 69.36 70.54 71.71 74.06 74.18 74.81 75.08 75.77 75.17 75.29
69.52 73.55 73.15 73.79 73.61 73.23 72.73 72.16 71.85 71.45 70.75 69.64 68.97 68.53 67.72 67.29 66.78 66.51 66.11 66.27 66.46 66.59 66.70 67.02 67.51 67.62 67.94 67.56 67.06 67.12 67.49 68.01 68.31 68.56 69.42 71.05 74.05 74.38 74.56 74.74 75.35 75.02 75.34
69.76 73.90 71.53 73.87 73.72 73.44 73.02 72.37 72.08 71.71 71.08 70.29 69.35 68.94 68.38 67.98 67.61 67.43 67.61 67.77 68.12 68.15 68.13 68.02 68.42 68.77 68.95 68.68 68.64 67.99 67.31 67.66 68.13 68.48 67.09 66.53 70.65 75.78 74.81 74.84 74.81 74.61 75.14
69.71 73.76 72.73 73.90 73.67 73.74 73.42 72.63 72.38 72.06 71.71 70.44 69.93 69.57 69.36 69.01 68.93 68.73 68.68 68.79 69.19 69.42 69.20 69.07 69.12 69.23 69.12 69.41 69.32 68.97 68.57 67.88 67.70 67.44 66.01 65.56 67.82 74.27 75.03 74.34 74.43 74.45 74.79
69.02 71.68 74.46 73.67 73.95 73.87 73.54 72.90 72.66 72.41 71.98 71.20 70.39 70.24 69.86 69.53 69.62 69.44 69.11 69.31 69.87 70.20 70.14 69.92 69.84 69.63 69.68 69.67 70.33 69.53 69.47 69.02 68.25 67.41 66.11 66.89 68.01 72.56 72.95 73.99 73.92 74.42 74.45
69.09 70.25 74.01 74.00 74.17 74.15 73.84 73.17 73.03 72.71 72.43 72.08 70.91 70.41 70.02 70.52 70.59 70.44 70.02 70.50 70.86 70.70 70.44 70.15 70.14 70.19 69.92 69.94 69.78 69.62 69.67 69.80 69.37 68.31 67.12 67.89 68.62 71.65 72.01 72.68 73.43 73.52 73.92
69.10 70.68 72.11 74.36 74.15 73.97 73.70 73.28 73.18 73.00 72.63 72.41 72.16 71.60 71.45 71.46 71.41 70.75 70.91 70.95 70.38 70.05 69.26 68.98 69.10 69.84 69.57 69.20 69.26 69.40 69.03 69.33 69.62 69.09 68.68 67.83 71.38 70.74 70.48 71.62 72.78 72.93 73.23
69.71 70.52 71.27 75.29 74.50 74.17 73.87 73.33 73.23 73.24 72.97 72.80 72.53 71.99 72.16 71.86 72.09 71.59 71.27 70.49 69.69 68.56 67.80 67.77 67.97 68.24 69.06 68.81 68.87 68.89 68.98 69.16 68.86 68.94 68.51 68.56 71.93 70.20 69.25 71.01 72.76 72.90 73.10
70.16 69.90 70.87 73.25 75.03 73.97 72.94 73.82 73.69 73.64 73.41 72.97 72.72 72.58 72.57 71.89 72.09 71.57 70.88 69.68 68.69 67.47 67.30 66.76 66.69 67.29 68.07 68.77 68.83 68.82 68.67 69.15 68.48 68.09 68.15 69.46 71.10 69.94 68.40 70.13 72.48 72.38 72.87
67.89 70.04 71.06 70.46 72.88 73.61 72.63 73.08 73.92 73.18 73.00 72.99 72.41 72.28 72.46 70.41 69.87 71.38 70.59 69.27 67.95 67.38 66.74 66.58 66.68 66.46 66.54 67.54 68.19 67.97 68.06 67.48 67.33 67.60 67.96 71.62 70.25 69.71 68.66 68.80 71.31 72.01 72.43
66.38 68.41 69.74 71.44 72.47 72.92 71.61 73.71 73.94 72.39 72.10 71.68 71.51 71.76 72.10 71.72 70.66 69.25 69.65 67.39 67.51 67.43 67.00 66.49 66.20 66.37 66.56 66.23 66.80 68.38 67.41 66.95 66.92 68.03 67.88 70.37 69.07 68.24 67.68 68.73 70.31 71.25 71.91
66.35 67.82 69.33 74.51 75.28 73.49 71.91 71.91 73.13 72.78 71.83 72.40 73.10 73.96 73.48 70.63 69.61 69.04 69.13 68.74 68.23 68.43 67.32 67.39 67.08 66.76 66.72 65.93 66.42 67.12 66.96 67.13 66.44 67.18 68.62 70.61 69.25 68.64 67.95 69.11 69.79 70.96 71.29
64.82 67.85 68.76 71.87 74.83 75.48 73.45 71.38 72.11 72.49 72.78 71.74 71.64 74.33 72.28 69.45 69.38 69.15 68.44 68.30 69.10 67.90 68.12 67.44 66.48 68.17 66.93 66.71 66.94 65.93 66.90 67.08 66.85 66.37 69.24 68.81 68.04 67.68 68.11 68.97 69.66 70.50 70.92
64.87 66.79 68.96 72.67 75.00 75.21 75.55 72.47 72.29 72.73 71.44 71.78 71.01 71.31 70.34 68.76 69.99 69.13 69.29 68.33 68.91 68.00 67.49 66.58 66.74 66.71 66.35 65.80 66.28 65.89 65.57 67.04 65.72 66.07 67.79 68.37 67.63 67.31 67.88 69.00 69.31 70.00 71.18
67.60 67.58 69.66 71.98 75.57 74.24 74.34 76.03 74.26 74.56 72.03 70.35 69.39 69.34 70.84 69.48 70.65 68.86 69.08 68.05 67.54 67.71 67.59 67.00 65.32 65.65 65.93 65.33 65.79 66.13 66.61 67.52 66.69 67.08 67.58 66.16 68.07 67.49 67.54 68.60 69.10 69.74 71.09
66.98 70.99 71.72 73.66 75.44 75.31 74.77 74.83 73.89 72.02 70.24 69.37 68.61 70.46 69.47 70.72 70.34 70.04 68.30 68.06 68.15 69.81 68.07 68.16 67.40 66.75 65.07 65.73 65.41 66.32 66.45 67.04 66.85 67.08 68.79 66.70 67.31 68.06 68.02 68.31 68.76 69.67 71.32
69.61 70.74 70.71 69.44 72.18 74.41 74.60 74.12 72.63 70.60 69.56 68.26 68.30 68.72 70.14 70.50 70.34 69.64 68.14 67.87 69.72 69.43 68.89 66.86 66.18 65.66 64.56 64.62 65.05 65.52 65.99 67.68 67.01 67.17 67.10 67.91 66.34 67.20 68.50 68.65 68.60 70.07 71.32
70.19 70.24 70.25 71.99 71.07 73.00 74.55 73.10 72.51 72.84 69.09 67.98 68.47 68.72 69.81 70.07 69.69 69.15 68.06 68.86 69.56 68.40 68.51 66.46 65.98 66.19 64.53 64.03 65.44 66.11 66.39 66.42 66.43 66.17 66.76 66.21 66.97 67.79 69.01 69.14 69.62 70.72 71.55
68.85 70.19 71.33 70.88 72.58 74.14 72.86 72.26 69.44 68.45 68.21 68.09 68.25 68.49 69.71 69.60 69.53 69.61 68.83 69.04 68.71 67.21 63.94 64.41 65.19 65.93 65.68 66.29 64.30 64.14 65.49 65.84 66.25 66.46 65.11 65.26 67.08 67.39 68.02 69.69 70.44 69.96 70.67
68.01 69.25 69.69 69.40 73.25 72.10 69.79 67.75 67.12 66.33 67.48 67.17 67.93 69.37 69.20 69.32 68.65 69.60 68.59 68.14 67.13 64.75 64.89 64.95 63.11 61.41 65.13 65.42 64.43 64.22 65.18 65.71 66.44 65.23 65.66 65.76 67.13 67.94 68.22 68.35 70.47 71.16 70.67
67.65 68.22 68.67 69.34 71.22 70.93 69.35 69.51 68.50 68.01 67.01 67.19 68.10 69.30 69.39 69.07 69.63 68.59 68.61 67.74 66.95 64.73 64.92 64.47 64.76 63.35 64.17 65.07 61.68 62.56 58.88 62.68 64.65 64.56 65.79 66.55 67.72 67.69 67.39 69.44 70.54 70.25 68.74
66.77 67.67 68.21 69.19 69.70 70.88 71.33 69.99 68.55 68.36 68.89 66.94 66.61 67.34 68.48 68.29 68.58 68.22 67.84 67.08 66.24 66.46 64.13 65.91 65.64 64.14 62.93 64.70 64.89 63.24 59.29 57.10 60.30 63.41 65.01 65.98 68.00 67.31 67.60 70.64 69.33 67.78 67.20
66.87 67.91 68.57 68.96 69.28 69.34 70.38 70.04 70.30 66.11 64.42 66.31 67.75 67.10 68.06 67.93 67.40 67.02 66.89 66.44 65.94 66.02 67.12 66.28 66.95 65.41 65.16 62.86 65.22 65.88 64.68 64.07 59.33 58.09 65.48 67.16 68.64 68.51 68.73 69.41 69.78 69.21 67.42
67.13 67.18 68.29 68.67 68.47 69.14 69.11 69.76 67.07 66.71 65.53 66.35 66.42 67.44 68.26 68.36 67.19 66.76 66.50 66.30 66.33 68.43 65.99 66.32 65.55 65.59 66.29 65.27 65.51 65.41 66.53 63.41 63.60 60.26 60.35 62.49 66.96 68.34 69.61 70.21 69.50 70.20 67.68
66.80 67.39 67.84 67.99 68.13 68.26 68.14 68.52 68.23 67.45 66.20 65.84 66.01 66.11 67.98 68.37 67.55 67.17 65.98 66.60 66.88 66.98 66.14 65.48 65.77 65.46 66.18 66.43 66.00 65.53 63.96 61.12 61.18 61.50 62.59 62.97 63.03 63.85 66.77 68.51 68.65 68.90 68.10
MSLP
1005.20 1007.34 1008.71 1009.22 1009.52 1009.94 1010.34 1010.86 1011.15 1011.54 1011.98 1012.29 1012.56 1012.80 1013.01 1013.20 1013.44 1013.54 1013.69 1013.80 1013.88 1014.01 1014.08 1014.14 1014.20 1014.19 1014.10 1014.05 1014.03 1014.08 1014.04 1014.08 1013.96 1013.88 1013.77 1013.63 1013.72 1013.65 1013.61 1013.61 1013.46 1013.25 1013.78
1004.85 1007.09 1008.48 1009.06 1009.56 1009.93 1010.35 1010.80 1011.24 1011.59 1012.06 1012.30 1012.46 1012.73 1013.03 1013.23 1013.47 1013.60 1013.67 1013.81 1013.91 1014.05 1014.13 1014.18 1014.17 1014.14 1014.11 1014.10 1014.07 1014.01 1014.09 1014.06 1013.96 1013.90 1013.86 1013.69 1013.46 1013.68 1013.63 1013.62 1013.57 1013.32 1013.81
1004.79 1006.76 1008.27 1008.95 1009.44 1009.83 1010.34 1010.85 1011.32 1011.58 1011.87 1012.24 1012.44 1012.68 1012.95 1013.17 1013.37 1013.53 1013.69 1013.89 1014.02 1014.05 1013.96 1014.00 1014.00 1014.03 1014.18 1014.15 1014.16 1014.07 1014.06 1014.05 1014.04 1014.00 1013.86 1013.34 1012.73 1013.34 1013.64 1013.60 1013.55 1013.71 1013.88
1004.90 1006.46 1007.62 1008.79 1009.21 1009.67 1010.09 1010.63 1011.08 1011.46 1011.81 1012.08 1012.33 1012.62 1012.89 1013.16 1013.38 1013.47 1013.62 1013.79 1013.89 1013.93 1013.92 1013.85 1013.83 1013.97 1014.08 1014.08 1014.06 1014.07 1014.13 1014.05 1013.96 1013.89 1013.46 1012.57 1012.03 1012.48 1013.17 1013.39 1013.58 1013.88 1013.95
1004.96 1006.03 1007.16 1008.44 1009.07 1009.46 1009.93 1010.32 1010.93 1011.33 1011.64 1011.95 1012.18 1012.42 1012.71 1012.91 1013.17 1013.32 1013.47 1013.59 1013.68 1013.68 1013.69 1013.71 1013.71 1013.68 1013.79 1013.86 1013.97 1013.99 1014.03 1014.06 1014.02 1013.73 1012.96 1012.31 1011.73 1011.69 1012.75 1013.23 1013.57 1013.88 1014.14
1004.84 1005.60 1006.93 1007.98 1008.74 1009.18 1009.62 1010.00 1010.55 1011.03 1011.38 1011.73 1011.94 1012.24 1012.47 1012.70 1012.91 1013.07 1013.24 1013.37 1013.43 1013.41 1013.37 1013.38 1013.46 1013.44 1013.48 1013.54 1013.49 1013.65 1013.72 1013.82 1013.82 1013.17 1012.55 1012.12 1012.13 1012.36 1013.01 1013.37 1013.47 1013.67 1014.00
1004.26 1005.20 1006.39 1007.80 1008.41 1008.91 1009.48 1009.84 1010.23 1010.68 1011.16 1011.56 1011.86 1012.09 1012.34 1012.52 1012.73 1012.85 1012.98 1013.10 1013.16 1013.18 1013.18 1013.19 1013.18 1013.23 1013.32 1013.33 1013.36 1013.39 1013.48 1013.56 1013.37 1012.58 1012.10 1011.89 1012.00 1012.56 1013.29 1013.52 1013.63 1013.81 1014.05
1003.94 1004.81 1005.51 1007.58 1008.34 1008.83 1009.26 1009.67 1010.21 1010.56 1011.00 1011.41 1011.71 1011.97 1012.20 1012.37 1012.53 1012.65 1012.73 1012.81 1012.88 1012.94 1012.97 1012.97 1012.98 1012.95 1013.09 1013.11 1013.20 1013.24 1013.35 1013.48 1012.96 1012.52 1012.22 1011.66 1011.94 1012.67 1013.22 1013.49 1013.70 1013.82 1014.02
1003.71 1004.42 1005.24 1006.81 1007.94 1008.75 1009.30 1009.68 1010.06 1010.40 1010.76 1011.12 1011.37 1011.65 1011.95 1012.10 1012.27 1012.42 1012.49 1012.54 1012.61 1012.76 1012.85 1012.83 1012.80 1012.82 1012.84 1012.86 1012.94 1013.06 1013.20 1013.23 1013.13 1012.34 1011.59 1011.47 1011.67 1012.28 1012.91 1013.54 1013.67 1013.86 1013.97
1003.28 1003.64 1004.90 1005.77 1007.03 1007.90 1008.64 1009.50 1009.75 1010.06 1010.58 1010.93 1011.20 1011.37 1011.68 1011.82 1011.97 1012.03 1012.08 1012.13 1012.25 1012.51 1012.67 1012.63 1012.62 1012.65 1012.62 1012.58 1012.62 1012.72 1012.87 1012.97 1012.90 1012.36 1011.72 1010.92 1011.63 1012.28 1012.95 1013.47 1013.66 1013.75 1013.89
1002.13 1003.05 1003.85 1004.59 1005.74 1006.83 1007.39 1008.30 1009.59 1009.92 1010.27 1010.68 1010.98 1011.23 1011.48 1011.22 1010.89 1010.88 1010.96 1011.27 1011.78 1012.17 1012.30 1012.36 1012.38 1012.42 1012.39 1012.32 1012.22 1012.31 1012.45 1012.23 1011.80 1011.58 1011.37 1011.27 1011.54 1011.96 1012.62 1013.34 1013.49 1013.64 1013.78
1000.80 1001.76 1002.98 1003.97 1004.67 1005.65 1006.23 1006.92 1008.30 1008.94 1009.33 1009.71 1009.96 1010.18 1010.51 1010.23 1010.02 1010.13 1010.58 1011.35 1011.48 1011.66 1011.83 1011.83 1011.88 1011.95 1011.98 1011.28 1010.65 1011.43 1011.71 1011.44 1011.25 1010.81 1010.75 1011.37 1011.77 1012.08 1012.42 1013.12 1013.36 1013.53 1013.61
1000.44 1000.74 1001.94 1003.24 1004.01 1004.94 1005.37 1005.90 1006.91 1007.55 1008.21 1008.54 1008.89 1009.24 1009.34 1009.42 1009.43 1009.56 1009.67 1009.85 1010.57 1010.92 1010.92 1010.63 1010.90 1011.22 1010.58 1010.30 1010.20 1010.47 1010.82 1010.49 1010.30 1009.79 1009.70 1010.93 1011.60 1011.97 1012.31 1013.03 1013.23 1013.30 1013.32
999.92 1000.01 1000.88 1002.23 1003.39 1004.29 1004.81 1005.16 1005.76 1006.25 1006.79 1007.41 1007.83 1008.52 1009.11 1009.43 1009.51 1009.64 1009.41 1009.21 1009.62 1010.03 1009.73 1010.11 1010.00 1010.08 1010.08 1009.98 1010.04 1010.39 1010.37 1010.39 1009.68 1009.46 1010.19 1011.07 1011.49 1011.86 1012.23 1012.80 1012.96 1013.00 1013.18
999.74 999.78 1000.16 1001.08 1002.75 1003.74 1004.68 1004.43 1004.96 1005.40 1005.95 1006.51 1007.24 1007.89 1008.61 1008.72 1008.82 1009.00 1008.96 1009.28 1009.66 1009.70 1009.48 1009.94 1010.04 1010.06 1010.37 1010.44 1010.16 1009.71 1009.71 1010.10 1010.34 1010.32 1009.61 1010.58 1011.40 1011.78 1012.02 1012.51 1012.63 1012.74 1012.90
999.51 999.58 1000.08 1000.55 1002.10 1003.38 1004.14 1004.30 1004.75 1005.20 1005.53 1006.61 1006.98 1007.23 1007.99 1008.47 1008.51 1008.63 1008.72 1009.25 1009.50 1009.55 1009.64 1010.02 1010.21 1010.12 1010.03 1010.00 1010.02 1009.93 1009.70 1009.83 1009.96 1009.86 1009.76 1010.57 1011.13 1011.43 1011.77 1012.13 1012.27 1012.41 1012.56
999.12 999.47 1000.08 1000.45 1001.65 1003.10 1003.90 1004.42 1004.61 1004.98 1005.43 1004.76 1006.10 1006.90 1007.31 1008.13 1008.26 1008.51 1008.43 1008.68 1009.21 1009.57 1009.68 1009.81 1009.93 1010.01 1009.91 1009.46 1009.35 1009.31 1009.83 1009.69 1009.89 1009.70 1009.74 1010.12 1010.80 1010.88 1011.24 1011.63 1011.89 1012.05 1012.14
998.82 999.17 999.65 1000.14 1001.21 1002.95 1003.70 1004.20 1004.65 1004.93 1005.60 1005.61 1005.70 1006.24 1007.16 1007.77 1007.99 1008.20 1008.29 1008.45 1008.60 1009.16 1009.58 1009.72 1009.95 1009.90 1009.76 1009.02 1009.09 1009.22 1009.74 1009.79 1009.66 1009.51 1009.96 1009.94 1009.63 1009.59 1010.62 1010.95 1011.30 1011.61 1011.76
998.40 999.07 999.58 1000.27 1001.07 1002.44 1003.47 1003.99 1004.78 1004.98 1005.30 1005.52 1005.62 1005.96 1006.49 1007.14 1007.42 1008.01 1008.32 1008.52 1008.80 1009.19 1009.35 1009.55 1009.70 1009.62 1009.73 1009.35 1009.30 1009.69 1009.68 1009.82 1009.82 1009.69 1009.59 1009.68 1009.68 1009.50 1009.32 1010.05 1010.67 1011.13 1011.37
998.54 999.10 999.62 1000.57 1001.41 1002.25 1003.15 1003.98 1004.51 1004.83 1005.17 1005.19 1005.50 1005.73 1006.04 1006.57 1006.95 1007.46 1007.82 1008.36 1008.74 1008.87 1009.25 1009.44 1009.47 1009.39 1009.25 1009.40 1009.42 1009.59 1009.68 1009.41 1009.08 1009.01 1009.13 1009.21 1009.14 1009.34 1009.09 1009.54 1010.11 1010.49 1011.06
999.04 999.65 1000.26 1000.86 1001.46 1002.30 1003.02 1003.47 1003.75 1004.13 1004.63 1004.94 1005.21 1005.55 1006.04 1006.20 1006.53 1007.13 1007.58 1008.11 1008.35 1008.50 1008.70 1009.01 1009.23 1009.41 1009.25 1009.40 1009.68 1009.62 1009.65 1009.46 1008.96 1008.38 1008.60 1008.63 1008.94 1009.26 1009.05 1009.00 1009.81 1010.00 1010.77
999.35 1000.04 1000.55 1001.03 1001.79 1002.52 1002.90 1003.11 1003.16 1003.67 1003.97 1004.42 1004.63 1005.14 1005.70 1006.17 1006.51 1006.84 1007.28 1007.76 1008.04 1008.26 1008.46 1008.64 1008.94 1008.98 1009.15 1009.40 1009.31 1009.31 1009.37 1009.55 1008.88 1008.43 1008.24 1008.63 1009.17 1009.18 1008.94 1009.19 1009.92 1010.16 1011.11
999.48 1000.24 1000.72 1001.41 1002.18 1002.45 1002.58 1002.96 1003.52 1003.89 1004.11 1004.42 1004.58 1004.98 1005.52 1006.20 1006.45 1006.93 1007.16 1007.49 1007.66 1007.91 1007.54 1007.93 1008.20 1008.62 1008.69 1008.73 1009.05 1008.77 1008.52 1007.94 1007.83 1008.11 1008.56 1008.79 1009.23 1008.78 1008.52 1009.61 1009.88 1010.47 1011.18
999.46 1000.37 1001.10 1001.77 1002.22 1002.33 1002.82 1003.13 1003.51 1003.43 1003.47 1003.46 1003.92 1004.21 1005.28 1005.90 1006.17 1006.59 1006.99 1007.17 1007.36 1007.22 1007.19 1007.57 1007.89 1008.23 1008.26 1008.35 1008.59 1008.49 1007.79 1007.21 1007.10 1008.10 1008.86 1008.94 1009.25 1009.15 1009.22 1009.92 1010.18 1010.45 1011.23
999.54 1000.42 1001.29 1001.80 1002.13 1002.59 1003.01 1003.06 1003.58 1003.47 1003.37 1003.80 1004.02 1004.61 1005.38 1005.91 1006.31 1006.51 1006.71 1006.98 1007.03 1007.13 1007.26 1007.51 1007.67 1007.75 1008.04 1008.04 1008.08 1007.77 1007.22 1006.68 1006.19 1006.70 1008.08 1008.92 1009.40 1009.57 1009.76 1009.97 1010.47 1010.84 1011.63
999.53 1000.47 1001.30 1001.83 1002.23 1002.80 1003.01 1003.29 1003.53 1003.68 1003.87 1003.89 1004.35 1004.61 1005.57 1006.04 1006.26 1006.38 1006.18 1006.65 1006.80 1007.13 1007.25 1007.16 1007.41 1007.26 1007.69 1007.69 1007.63 1007.66 1007.39 1006.73 1006.31 1006.87 1007.80 1008.55 1009.37 1010.21 1010.29 1010.56 1010.86 1011.12 1011.74
Wind_Speed
12 20 22 21 20 18 18 16 16 15 14 12 10 8 7 7 6 6 6 6 4 2 1 0 1 2 3 3 3 4 4 5 5 5 6 6 6 5 6 9 11 10 15
16 21 23 21 20 19 18 17 15 14 13 13 12 10 8 7 5 4 4 4 4 3 2 2 3 4 4 5 5 5 5 6 6 7 8 10 10 9 8 9 11 7 14
17 20 23 21 20 19 18 17 16 15 15 14 13 11 10 9 7 6 5 4 4 4 4 4 4 4 6 6 6 7 7 6 7 8 10 9 9 12 11 11 11 7 12
15 17 21 21 20 19 19 17 17 16 15 14 13 12 11 9 8 7 7 7 7 7 7 7 7 7 7 7 7 7 8 8 8 9 10 12 13 16 13 13 11 8 11
15 17 17 23 20 19 19 18 17 16 15 15 14 13 11 10 10 9 9 9 10 10 10 10 10 10 10 10 9 8 8 8 10 11 11 11 9 9 13 13 11 9 12
15 16 17 24 21 20 20 19 18 17 16 16 15 13 12 11 10 10 10 11 12 13 13 12 12 13 12 12 10 11 9 9 9 12 11 11 6 5 1 7 11 9 12
13 14 18 23 22 20 19 19 19 18 16 15 14 13 12 10 10 11 12 13 12 13 14 13 15 15 14 13 10 8 9 11 11 12 11 9 8 6 3 4 6 8 10
10 13 14 21 21 19 19 19 17 16 15 14 13 11 11 11 11 12 13 12 11 11 11 12 13 12 12 13 11 9 9 10 12 12 11 9 6 8 4 4 8 9 11
10 12 12 16 18 17 16 16 16 15 15 14 13 12 11 11 11 12 11 11 10 10 9 11 12 14 12 11 11 10 11 10 11 11 13 9 12 10 5 4 10 9 11
11 12 13 12 16 17 16 15 16 16 15 14 13 12 11 11 12 15 11 11 13 10 9 10 11 12 13 12 12 11 11 11 12 12 11 6 15 10 3 4 11 9 11
8 12 13 16 15 17 17 17 15 16 15 13 12 12 10 10 13 16 16 8 10 9 10 11 11 12 13 15 14 15 14 9 13 10 9 8 13 11 7 6 10 9 12
13 12 15 16 15 16 14 15 15 14 12 12 12 13 11 13 9 7 5 6 10 11 12 14 14 14 13 10 9 18 9 12 11 10 8 13 9 5 4 7 9 9 11
15 9 15 13 12 15 14 11 9 9 9 10 13 11 10 7 7 7 7 8 7 13 9 12 13 10 12 10 7 4 7 11 10 10 10 14 10 7 5 9 10 9 11
20 14 12 17 14 13 10 11 11 10 10 9 11 10 7 6 8 7 6 7 2 7 6 6 6 4 7 9 8 10 9 10 8 5 11 14 9 6 6 11 11 10 10
17 17 11 16 16 13 14 11 11 11 10 10 8 9 8 8 7 7 6 3 5 8 7 5 6 3 5 7 11 12 10 9 9 6 3 12 11 9 9 12 11 11 10
16 15 11 13 16 17 15 12 9 8 9 8 8 8 10 8 6 7 5 5 8 6 6 7 5 6 5 6 8 6 5 8 9 11 7 5 8 12 11 13 13 11 11
14 11 10 11 16 15 15 13 10 9 6 11 9 8 9 9 9 8 8 5 6 4 7 7 8 7 7 9 8 7 8 10 10 7 2 5 15 15 17 15 14 12 12
12 12 10 12 17 15 14 12 9 9 10 8 7 7 10 10 9 8 8 8 6 4 5 5 7 9 8 7 4 3 6 6 8 5 6 10 7 8 14 17 16 13 12
11 10 11 12 14 16 14 12 11 10 8 7 6 6 9 10 10 7 7 7 8 6 6 4 6 9 7 6 5 5 5 6 7 9 13 9 9 7 7 18 15 12 12
9 9 9 10 12 14 12 10 11 8 8 7 7 6 7 8 5 8 8 7 7 6 3 5 9 8 8 5 6 5 7 9 8 10 8 9 10 9 9 11 10 9 13
5 7 10 13 12 11 11 12 10 9 7 7 6 7 6 7 8 6 6 7 7 7 7 6 5 5 5 4 4 5 6 8 7 7 7 8 3 8 9 5 4 3 8
6 9 11 13 13 12 10 9 7 7 8 7 7 7 5 8 6 7 7 7 8 5 7 9 9 7 7 6 5 5 4 5 8 8 6 5 7 8 8 7 7 9 9
8 10 12 14 15 12 11 6 5 5 1 5 6 7 7 6 6 5 7 7 7 7 7 8 8 9 7 6 11 5 4 6 9 6 6 5 8 8 8 7 8 9 10
10 11 14 15 16 12 11 9 8 7 6 2 0 2 5 4 6 5 5 8 8 8 5 6 6 8 7 7 7 9 10 6 7 6 5 6 7 6 6 7 8 8 10
12 13 14 16 15 13 10 8 7 6 4 3 3 1 4 3 3 7 7 8 8 4 5 7 7 8 6 5 6 6 6 7 5 4 6 6 5 5 5 6 7 7 10
14 15 15 16 14 12 10 8 5 5 2 3 3 1 2 3 4 6 6 6 4 5 6 6 5 7 5 5 4 5 5 4 3 4 4 8 7 3 2 5 6 6 8
Wind_Direction
143 148 164 168 166 164 165 166 166 168 169 168 168 168 166 162 161 152 149 145 142 143 150 278 289 285 284 281 289 304 314 314 325 320 322 307 268 241 202 187 180 197 141
145 154 169 170 170 168 168 170 172 169 173 175 175 175 177 179 184 182 175 175 174 187 209 248 274 287 281 281 282 280 290 299 306 306 301 284 250 240 224 218 219 148 153
150 157 173 173 173 170 171 172 175 177 179 183 182 182 186 191 198 207 215 224 233 247 250 254 260 263 273 272 271 281 280 285 291 292 290 268 244 204 237 229 229 213 159
151 158 178 177 176 174 175 176 179 180 184 186 187 191 194 200 211 220 230 242 251 260 266 262 260 257 252 263 265 265 268 276 284 291 270 250 250 171 207 230 231 213 171
159 163 179 172 180 180 180 177 181 184 187 190 195 198 203 209 218 230 240 247 251 259 265 267 267 259 251 240 250 257 260 266 273 277 264 264 278 177 197 219 221 206 187
170 170 159 170 183 185 185 180 184 187 189 195 199 205 210 220 229 233 245 252 259 259 266 268 267 267 260 264 255 249 261 264 270 263 252 257 260 342 218 233 234 227 188
178 177 158 172 183 188 188 187 186 187 192 198 205 212 221 230 240 245 251 254 262 269 281 274 277 276 269 268 268 264 262 261 267 271 259 249 258 148 89 259 263 231 196
195 182 166 172 184 189 192 191 189 189 193 198 208 215 225 235 245 255 260 254 262 269 280 286 289 291 283 268 265 269 265 263 264 246 263 270 156 123 80 316 268 231 209
215 187 196 173 187 191 196 195 192 190 193 199 206 212 225 238 251 262 265 261 261 268 273 282 285 284 284 265 262 259 257 257 263 273 266 222 163 147 125 281 267 236 210
212 206 201 188 185 198 195 200 196 190 196 202 207 212 225 242 254 250 244 235 241 248 263 277 281 283 278 271 259 254 254 254 249 258 272 274 124 123 143 277 273 238 208
231 206 202 201 199 195 198 192 196 198 199 203 212 219 224 244 256 227 222 205 185 221 255 261 263 265 267 262 256 243 248 252 248 229 235 130 136 141 160 251 280 254 211
245 214 209 208 197 196 205 195 192 203 205 208 218 225 214 234 252 288 346 184 205 223 238 240 241 244 250 253 234 223 230 238 236 247 225 129 135 143 170 245 266 264 218
273 232 217 194 194 206 202 190 183 200 201 207 215 217 231 258 255 236 236 211 215 223 241 210 215 223 229 236 250 239 246 241 236 238 208 148 149 165 182 243 253 267 227
293 232 230 194 185 200 216 196 193 195 196 199 204 209 228 239 227 244 263 276 244 272 256 267 269 301 297 285 227 208 233 255 273 265 124 143 148 175 201 241 246 261 234
280 272 251 190 180 191 214 201 200 201 191 198 202 196 221 237 230 249 259 270 306 273 272 266 288 219 199 248 279 251 236 224 264 280 182 152 176 195 204 234 240 253 235
279 267 257 202 174 185 201 227 188 189 181 199 215 209 197 239 230 254 238 230 257 264 246 265 277 299 261 255 222 268 251 240 231 258 191 152 201 198 209 226 230 243 233
267 260 238 220 173 189 198 214 192 187 223 181 199 208 209 214 228 253 265 249 230 233 251 263 258 246 270 254 228 225 253 218 233 255 327 209 204 197 204 213 224 233 235
263 245 230 221 181 187 198 200 195 201 200 207 192 200 198 222 236 254 243 255 259 264 257 249 247 256 253 280 339 230 235 249 244 248 227 242 247 214 201 205 206 221 222
253 241 236 212 191 187 195 194 201 186 198 203 201 207 205 219 232 223 247 255 262 247 234 239 256 252 257 257 280 249 230 212 217 221 221 218 245 276 204 183 198 205 207
287 258 212 183 200 175 182 184 197 170 202 201 207 219 217 228 240 238 244 244 248 240 230 222 237 248 263 250 248 236 229 231 195 230 197 222 215 218 247 180 177 196 184
253 193 185 187 177 168 171 185 183 188 197 204 216 217 234 246 250 232 242 244 231 232 230 231 247 269 258 247 230 227 230 242 245 219 214 218 165 230 227 195 218 184 171
191 184 180 174 162 177 176 194 180 196 189 206 206 204 213 243 251 242 246 236 224 230 224 226 220 229 236 211 209 205 194 214 247 222 211 157 199 215 208 187 188 150 138
173 175 167 162 164 182 172 162 157 149 199 192 210 219 201 238 239 233 243 227 221 232 226 211 223 224 233 211 216 218 184 213 167 187 225 189 202 222 177 161 166 145 160
168 166 160 161 168 171 158 156 176 195 209 186 266 335 160 216 241 228 229 227 224 230 218 219 227 226 228 223 204 231 247 249 174 160 211 207 195 207 154 168 172 147 159
157 159 158 158 166 147 184 165 175 238 163 233 238 180 223 258 257 239 218 214 224 207 245 236 227 213 213 226 209 219 276 269 182 165 160 174 186 174 164 179 167 155 150
158 154 154 157 150 160 161 155 218 122 292 290 211 345 327 226 236 233 196 203 220 221 227 217 202 208 206 222 209 202 248 256 204 154 190 155 131 82 103 140 143 150 150